AVA105 SPZO-SLLP

Flight info

Callsign AVA105
Flight time N/A
Altitude 37000
Route ILMOX UV11 JUL UM657 PAZ
Aircraft A320/M-SDE3FGHIRWY/LB1

Departure

Time 2026-04-30 22:55
Airport Alejandro Velasco Astete International Airport (SPZO)

Arrival

Time N/A
Airport El Alto International Airport (SLLP)
Time Latitude Longitude Altitude Speed Heading
2026-04-30 22:44 -13.53740 -71.94408 10790 ft 0 kts 146°
2026-04-30 22:46 -13.53716 -71.94425 10817 ft 3 kts 146°
2026-04-30 22:47 -13.53654 -71.94443 10817 ft 3 kts 260°
2026-04-30 22:47 -13.53654 -71.94417 10817 ft 1 kts 276°
2026-04-30 22:48 -13.53654 -71.94416 10817 ft 0 kts 276°
2026-04-30 22:50 -13.53645 -71.94510 10817 ft 10 kts 276°
2026-04-30 22:51 -13.53623 -71.94706 10827 ft 19 kts 278°
2026-04-30 22:51 -13.53601 -71.94964 10851 ft 13 kts 276°
2026-04-30 22:52 -13.53592 -71.95058 10853 ft 17 kts 275°
2026-04-30 22:52 -13.53546 -71.95434 10864 ft 25 kts 298°
2026-04-30 22:53 -13.53424 -71.95367 10865 ft 0 kts 92°
2026-04-30 22:53 -13.53424 -71.95349 10865 ft 3 kts 93°
2026-04-30 22:53 -13.53430 -71.95281 10864 ft 25 kts 96°
2026-04-30 22:54 -13.53571 -71.93896 10803 ft 160 kts 96°
2026-04-30 22:55 -13.54096 -71.89961 12726 ft 183 kts 98°
2026-04-30 22:55 -13.54794 -71.87344 13121 ft 207 kts 115°
2026-04-30 22:56 -13.55948 -71.84444 13349 ft 231 kts 109°
2026-04-30 22:56 -13.57817 -71.79501 13652 ft 267 kts 111°
2026-04-30 22:57 -13.59310 -71.75772 13854 ft 296 kts 114°
2026-04-30 22:57 -13.61693 -71.72159 14050 ft 316 kts 133°
2026-04-30 22:58 -13.64807 -71.68811 14224 ft 331 kts 133°
2026-04-30 22:59 -13.68675 -71.62492 15325 ft 361 kts 111°
2026-04-30 22:59 -13.71134 -71.55615 18798 ft 314 kts 118°